Camden, SC

5:35 AM EDT on October 24, 2017 (GMT -0400)
Woodward

Weather History for KCDN - May, 2013

Change the Weather History Date:

Saturday, May 25, 2013

  Actual Average (KSSC) Record (KSSC)
Temperature  
Mean Temperature 61 °F -  
Max Temperature 78 °F 82 °F 98 °F (2000)
Min Temperature 44 °F 60 °F 48 °F (2013)
Degree Days  
Heating Degree Days 4    
Growing Degree Days 11 (Base 50)    
Moisture  
Dew Point 38 °F    
Average Humidity 44    
Maximum Humidity 81    
Minimum Humidity 17    
Precipitation  
Precipitation 0.00 in - - ()
Sea Level Pressure  
Sea Level Pressure 30.24 in    
Wind  
Wind Speed 3 mph (NNW)    
Max Wind Speed 13 mph    
Max Gust Speed -    
Visibility 10 miles    
Events      
Averages and records for this station are not official NWS values.
T = Trace of Precipitation, MM = Missing Value Source: NWS Daily Summary

Daily Weather History Graph

Daily Weather History Graph

Search for Another Location

Airport or City:

Trip Planner

Search our weather history database for the weather conditions in past years. The results will help you decide how hot, cold, wet, or windy it might be!

Date:

Astronomy

May. 25, 2013 Rise Set
Actual Time 6:13 AM EDT 8:24 PM EDT
Civil Twilight 5:45 AM EDT 8:53 PM EDT
Nautical Twilight 5:10 AM EDT 9:28 PM EDT
Astronomical Twilight 4:33 AM EDT 10:05 PM EDT
Moon 9:11 PM EDT (5/25) 6:38 AM EDT (5/25)
Length of Visible Light 15h 07m
Length of Day
14h 10m
Full, 100% of the Moon is Illuminated
May 25
Full
May 31
Last Quarter
Jun 8
New
Jun 16
First Quarter
Jun 23
Full

Hourly Weather History & Observations

Time (EDT) Temp. Windchill Dew Point Humidity Pressure Visibility Wind Dir Wind Speed Gust Speed Precip Events Conditions
12:15 AM 57.2 °F - 39.2 °F 51% 30.21 in 10.0 mi Calm Calm - 0.00 in   Clear
12:35 AM 55.4 °F - 39.2 °F 54% 30.22 in 10.0 mi Calm Calm - 0.00 in   Clear
12:55 AM 55.4 °F - 39.2 °F 54% 30.22 in 10.0 mi Calm Calm - 0.00 in   Clear
1:15 AM 55.4 °F - 37.4 °F 51% 30.22 in 10.0 mi North 4.6 mph - 0.00 in   Clear
1:35 AM 53.6 °F - 39.2 °F 58% 30.22 in 10.0 mi North 3.5 mph - 0.00 in   Clear
1:55 AM 53.6 °F - 39.2 °F 58% 30.22 in 10.0 mi NNE 5.8 mph - 0.00 in   Clear
2:15 AM 53.6 °F - 39.2 °F 58% 30.22 in 10.0 mi NNE 3.5 mph - 0.00 in   Clear
2:35 AM 53.6 °F - 39.2 °F 58% 30.21 in 10.0 mi NNE 6.9 mph - 0.00 in   Clear
2:55 AM 53.6 °F - 37.4 °F 54% 30.22 in 10.0 mi NNE 3.5 mph - 0.00 in   Clear
3:15 AM 53.6 °F - 37.4 °F 54% 30.22 in 10.0 mi Calm Calm - 0.00 in   Clear
3:35 AM 51.8 °F - 37.4 °F 58% 30.22 in 10.0 mi Calm Calm - 0.00 in   Clear
3:55 AM 51.8 °F - 39.2 °F 62% 30.23 in 10.0 mi Calm Calm - 0.00 in   Clear
4:15 AM 50.0 °F - 39.2 °F 66% 30.23 in 10.0 mi Calm Calm - 0.00 in   Clear
4:35 AM 48.2 °F - 39.2 °F 71% 30.23 in 10.0 mi Calm Calm - 0.00 in   Clear
4:55 AM 48.2 °F - 39.2 °F 71% 30.23 in 10.0 mi Calm Calm - 0.00 in   Clear
5:15 AM 48.2 °F - 39.2 °F 71% 30.24 in 10.0 mi Calm Calm - 0.00 in   Clear
5:35 AM 48.2 °F - 39.2 °F 71% 30.25 in 10.0 mi Calm Calm - 0.00 in   Clear
5:55 AM 46.4 °F 45.2 °F 39.2 °F 76% 30.26 in 10.0 mi WSW 3.5 mph - 0.00 in   Clear
6:15 AM 44.6 °F - 39.2 °F 81% 30.27 in 10.0 mi Calm Calm - 0.00 in   Clear
6:35 AM 44.6 °F - 39.2 °F 81% 30.28 in 10.0 mi Calm Calm - 0.00 in   Clear
6:55 AM 44.6 °F - 39.2 °F 81% 30.29 in 10.0 mi Calm Calm - 0.00 in   Clear
7:15 AM 46.4 °F - 41.0 °F 81% 30.30 in 10.0 mi Calm Calm - 0.00 in   Clear
7:35 AM 51.8 °F - 42.8 °F 71% 30.30 in 10.0 mi Calm Calm - 0.00 in   Clear
7:55 AM 51.8 °F - 41.0 °F 67% 30.30 in 10.0 mi Calm Calm - 0.00 in   Clear
8:15 AM 55.4 °F - 41.0 °F 58% 30.32 in 10.0 mi Calm Calm - 0.00 in   Clear
8:35 AM 57.2 °F - 42.8 °F 59% 30.33 in 10.0 mi West 3.5 mph - 0.00 in   Clear
8:55 AM 60.8 °F - 39.2 °F 45% 30.34 in 10.0 mi North 3.5 mph - 0.00 in   Clear
9:15 AM 62.6 °F - 39.2 °F 42% 30.34 in 10.0 mi NNW 5.8 mph - 0.00 in   Clear
9:35 AM 62.6 °F - 37.4 °F 39% 30.34 in 10.0 mi NNW 6.9 mph - 0.00 in   Clear
9:55 AM 64.4 °F - 35.6 °F 34% 30.34 in 10.0 mi NNE 12.7 mph - 0.00 in   Clear
10:15 AM 64.4 °F - 35.6 °F 34% 30.34 in 10.0 mi NNE 8.1 mph - 0.00 in   Clear
10:35 AM 64.4 °F - 37.4 °F 37% 30.33 in 10.0 mi North 6.9 mph - 0.00 in   Clear
10:55 AM 66.2 °F - 33.8 °F 30% 30.33 in 10.0 mi North 9.2 mph - 0.00 in   Clear
11:15 AM 66.2 °F - 35.6 °F 32% 30.33 in 10.0 mi NE 8.1 mph - 0.00 in   Clear
11:35 AM 66.2 °F - 32.0 °F 28% 30.32 in 10.0 mi East 6.9 mph - 0.00 in   Clear
11:55 AM 68.0 °F - 32.0 °F 26% 30.31 in 10.0 mi North 10.4 mph - 0.00 in   Clear
12:15 PM 69.8 °F - 33.8 °F 27% 30.31 in 10.0 mi Calm Calm - 0.00 in   Clear
12:35 PM 69.8 °F - 32.0 °F 25% 30.30 in 10.0 mi NNE 8.1 mph - 0.00 in   Clear
12:55 PM 71.6 °F - 32.0 °F 23% 30.29 in 10.0 mi North 5.8 mph - 0.00 in   Clear
1:15 PM 71.6 °F - 32.0 °F 23% 30.29 in 10.0 mi Calm Calm - 0.00 in   Clear
1:35 PM 73.4 °F - 32.0 °F 22% 30.27 in 10.0 mi Calm Calm - 0.00 in   Clear
1:55 PM 73.4 °F - 28.4 °F 19% 30.25 in 10.0 mi WNW 4.6 mph - 0.00 in   Clear
2:15 PM 75.2 °F - 30.2 °F 19% 30.24 in 10.0 mi NNE 8.1 mph - 0.00 in   Clear
2:35 PM 75.2 °F - 28.4 °F 18% 30.23 in 10.0 mi Calm Calm - 0.00 in   Clear
2:55 PM 75.2 °F - 28.4 °F 18% 30.22 in 10.0 mi West 6.9 mph - 0.00 in   Clear
3:15 PM 77.0 °F - 32.0 °F 19% 30.21 in 10.0 mi WNW 3.5 mph - 0.00 in   Clear
3:35 PM 77.0 °F - 30.2 °F 18% 30.20 in 10.0 mi NNW 4.6 mph - 0.00 in   Clear
3:55 PM 78.8 °F - 30.2 °F 17% 30.21 in 10.0 mi West 9.2 mph - 0.00 in   Clear
4:15 PM 78.8 °F - 32.0 °F 18% 30.20 in 10.0 mi West 10.4 mph - 0.00 in   Clear
4:35 PM 78.8 °F - 33.8 °F 20% 30.20 in 10.0 mi North 3.5 mph - 0.00 in   Clear
4:55 PM 78.8 °F - 35.6 °F 21% 30.19 in 10.0 mi Calm Calm - 0.00 in   Clear
5:15 PM 78.8 °F - 35.6 °F 21% 30.19 in 10.0 mi West 5.8 mph - 0.00 in   Clear
5:35 PM 78.8 °F - 35.6 °F 21% 30.19 in 10.0 mi WNW 6.9 mph - 0.00 in   Clear
5:55 PM 78.8 °F - 37.4 °F 23% 30.19 in 10.0 mi WNW 6.9 mph - 0.00 in   Clear
6:15 PM 78.8 °F - 37.4 °F 23% 30.19 in 10.0 mi WSW 8.1 mph - 0.00 in   Clear
6:35 PM 78.8 °F - 37.4 °F 23% 30.18 in 10.0 mi West 8.1 mph - 0.00 in   Clear
6:55 PM 77.0 °F - 39.2 °F 26% 30.18 in 10.0 mi West 8.1 mph - 0.00 in   Clear
7:15 PM 75.2 °F - 39.2 °F 27% 30.19 in 10.0 mi West 6.9 mph - 0.00 in   Clear
7:35 PM 75.2 °F - 39.2 °F 27% 30.19 in 10.0 mi Calm Calm - 0.00 in   Clear
7:55 PM 75.2 °F - 39.2 °F 27% 30.19 in 10.0 mi SW 3.5 mph - 0.00 in   Clear
8:15 PM 73.4 °F - 42.8 °F 33% 30.19 in 10.0 mi Calm Calm - 0.00 in   Clear
8:35 PM 71.6 °F - 42.8 °F 35% 30.18 in 10.0 mi SSW 3.5 mph - 0.00 in   Clear
8:55 PM 71.6 °F - 42.8 °F 35% 30.19 in 10.0 mi SW 3.5 mph - 0.00 in   Clear
9:15 PM 69.8 °F - 44.6 °F 40% 30.19 in 10.0 mi Calm Calm - 0.00 in   Clear
9:35 PM 64.4 °F - 46.4 °F 52% 30.19 in 10.0 mi Calm Calm - 0.00 in   Clear
9:55 PM 62.6 °F - 46.4 °F 55% 30.20 in 10.0 mi Calm Calm - 0.00 in   Clear
10:15 PM 64.4 °F - 46.4 °F 52% 30.20 in 10.0 mi Calm Calm - 0.00 in   Clear
10:35 PM 62.6 °F - 48.2 °F 59% 30.20 in 10.0 mi Calm Calm - 0.00 in   Clear
10:55 PM 60.8 °F - 48.2 °F 63% 30.21 in 10.0 mi Calm Calm - 0.00 in   Clear
11:15 PM 60.8 °F - 46.4 °F 59% 30.20 in 10.0 mi Calm Calm - 0.00 in   Clear
11:35 PM 60.8 °F - 48.2 °F 63% 30.20 in 10.0 mi Calm Calm - 0.00 in   Clear
11:55 PM 57.2 °F - 48.2 °F 72% 30.19 in 10.0 mi Calm Calm - 0.00 in   Clear